GLO1370 SBSP-SBSR

Flight info

Callsign GLO1370
Flight time 0h 48m
Altitude 26000
Route GERTU UL201 UPONA DCT
Aircraft B738/M-SDFGIKLORWXY/LB1

Departure

Time 2026-04-16 03:00
Airport Congonhas–Deputado Freitas Nobre Airport (SBSP)

Arrival

Time 2026-04-16 03:48
Airport Prof. Eribelto Manoel Reino State Airport (SBSR)
Time Latitude Longitude Altitude Speed Heading
2026-04-16 02:13 -23.62539 -46.65945 2599 ft 0 kts 237°
2026-04-16 02:51 -23.62521 -46.65907 2600 ft 4 kts 300°
2026-04-16 02:51 -23.62535 -46.65893 2600 ft 4 kts 328°
2026-04-16 02:52 -23.62549 -46.65884 2600 ft 0 kts 327°
2026-04-16 02:56 -23.62547 -46.65885 2600 ft 1 kts 329°
2026-04-16 02:57 -23.62535 -46.65889 2600 ft 4 kts 346°
2026-04-16 02:57 -23.62477 -46.65891 2600 ft 8 kts 346°
2026-04-16 02:57 -23.62443 -46.65909 2600 ft 8 kts 329°
2026-04-16 02:57 -23.62390 -46.65946 2600 ft 10 kts 328°
2026-04-16 02:58 -23.62310 -46.66001 2599 ft 11 kts 328°
2026-04-16 02:58 -23.62265 -46.66032 2599 ft 12 kts 328°
2026-04-16 02:58 -23.62167 -46.66092 2598 ft 13 kts 327°
2026-04-16 02:58 -23.62099 -46.66135 2597 ft 11 kts 344°
2026-04-16 02:59 -23.62053 -46.66126 2595 ft 9 kts 35°
2026-04-16 02:59 -23.62046 -46.66080 2590 ft 5 kts 128°
2026-04-16 02:59 -23.62073 -46.66059 2595 ft 5 kts 147°
2026-04-16 02:59 -23.62193 -46.65975 2596 ft 52 kts 147°
2026-04-16 03:00 -23.62710 -46.65617 2606 ft 122 kts 147°
2026-04-16 03:00 -23.63587 -46.65007 2681 ft 172 kts 147°
2026-04-16 03:00 -23.64619 -46.64283 3359 ft 180 kts 146°
2026-04-16 03:00 -23.65750 -46.63654 3970 ft 189 kts 165°
2026-04-16 03:01 -23.67124 -46.63682 4264 ft 204 kts 186°
2026-04-16 03:01 -23.68544 -46.63944 4560 ft 211 kts 186°
2026-04-16 03:01 -23.70057 -46.64180 4640 ft 226 kts 187°
2026-04-16 03:01 -23.71667 -46.64464 4861 ft 246 kts 187°
2026-04-16 03:02 -23.73448 -46.64776 5041 ft 268 kts 187°
2026-04-16 03:02 -23.75279 -46.65290 5205 ft 276 kts 207°
2026-04-16 03:02 -23.76625 -46.66749 5393 ft 279 kts 243°
2026-04-16 03:02 -23.77046 -46.68803 5632 ft 280 kts 270°
2026-04-16 03:03 -23.77063 -46.70904 5950 ft 282 kts 259°
2026-04-16 03:03 -23.77833 -46.72834 6230 ft 278 kts 232°
2026-04-16 03:03 -23.79021 -46.74503 6556 ft 280 kts 233°
2026-04-16 03:03 -23.80201 -46.76199 6844 ft 280 kts 232°
2026-04-16 03:04 -23.81386 -46.77899 7496 ft 284 kts 233°
2026-04-16 03:04 -23.82550 -46.79661 8331 ft 288 kts 234°
2026-04-16 03:04 -23.83690 -46.81473 9170 ft 292 kts 235°
2026-04-16 03:04 -23.84833 -46.83331 9990 ft 297 kts 236°
2026-04-16 03:05 -23.85994 -46.85237 10576 ft 310 kts 237°
2026-04-16 03:05 -23.86885 -46.87474 10706 ft 337 kts 262°
2026-04-16 03:05 -23.86659 -46.90044 11115 ft 348 kts 292°
2026-04-16 03:05 -23.85435 -46.92336 11736 ft 354 kts 309°
2026-04-16 03:06 -23.83667 -46.94237 12268 ft 361 kts 326°
2026-04-16 03:06 -23.81430 -46.95470 12965 ft 361 kts 340°
2026-04-16 03:06 -23.76719 -46.97481 14294 ft 367 kts 339°
2026-04-16 03:07 -23.74327 -46.98513 14859 ft 371 kts 339°
2026-04-16 03:07 -23.71921 -46.99560 15423 ft 375 kts 339°
2026-04-16 03:07 -23.69492 -47.00625 16002 ft 378 kts 338°
2026-04-16 03:07 -23.67042 -47.01705 16535 ft 382 kts 338°
2026-04-16 03:08 -23.64567 -47.02799 17038 ft 387 kts 337°
2026-04-16 03:08 -23.62062 -47.03909 17568 ft 390 kts 337°
2026-04-16 03:08 -23.59537 -47.05029 18109 ft 393 kts 336°
2026-04-16 03:08 -23.56993 -47.06158 18594 ft 397 kts 336°
2026-04-16 03:09 -23.54458 -47.07282 19045 ft 399 kts 336°
2026-04-16 03:09 -23.51880 -47.08425 19521 ft 402 kts 336°
2026-04-16 03:09 -23.49284 -47.09575 19988 ft 404 kts 336°
2026-04-16 03:09 -23.46670 -47.10732 20444 ft 407 kts 336°
2026-04-16 03:10 -23.44040 -47.11897 20884 ft 409 kts 336°
2026-04-16 03:10 -23.41395 -47.13067 21324 ft 412 kts 336°
2026-04-16 03:10 -23.38733 -47.14245 21775 ft 414 kts 336°
2026-04-16 03:10 -23.36053 -47.15430 22190 ft 417 kts 336°
2026-04-16 03:11 -23.33358 -47.16620 22623 ft 419 kts 336°
2026-04-16 03:11 -23.30657 -47.17813 23191 ft 418 kts 336°
2026-04-16 03:11 -23.27975 -47.18996 23807 ft 414 kts 336°
2026-04-16 03:11 -23.25314 -47.20169 24334 ft 412 kts 335°
2026-04-16 03:12 -23.22661 -47.21340 24773 ft 412 kts 335°
2026-04-16 03:12 -23.19999 -47.22514 25216 ft 413 kts 335°
2026-04-16 03:12 -23.17336 -47.23688 25726 ft 412 kts 335°
2026-04-16 03:12 -23.14681 -47.24857 26054 ft 413 kts 335°
2026-04-16 03:13 -23.12024 -47.26027 26049 ft 410 kts 335°
2026-04-16 03:13 -23.09382 -47.27190 26073 ft 411 kts 335°
2026-04-16 03:13 -23.06732 -47.28356 26069 ft 412 kts 335°
2026-04-16 03:13 -23.04074 -47.29526 26078 ft 412 kts 335°
2026-04-16 03:14 -23.01416 -47.30694 26078 ft 413 kts 335°
2026-04-16 03:14 -22.98753 -47.31864 26076 ft 413 kts 335°
2026-04-16 03:14 -22.96084 -47.33037 26073 ft 414 kts 335°
2026-04-16 03:14 -22.93414 -47.34209 26064 ft 414 kts 335°
2026-04-16 03:15 -22.90748 -47.35379 26062 ft 414 kts 335°
2026-04-16 03:15 -22.88117 -47.36533 26059 ft 413 kts 335°
2026-04-16 03:15 -22.85452 -47.37702 26044 ft 413 kts 335°
2026-04-16 03:15 -22.82790 -47.38868 26042 ft 413 kts 335°
2026-04-16 03:16 -22.80128 -47.40034 26050 ft 412 kts 335°
2026-04-16 03:16 -22.77470 -47.41198 26040 ft 412 kts 335°
2026-04-16 03:16 -22.74818 -47.42359 26033 ft 411 kts 335°
2026-04-16 03:16 -22.72166 -47.43520 26037 ft 411 kts 335°
2026-04-16 03:17 -22.69516 -47.44679 26036 ft 411 kts 335°
2026-04-16 03:17 -22.66867 -47.45837 26037 ft 410 kts 335°
2026-04-16 03:17 -22.64220 -47.46994 26031 ft 411 kts 335°
2026-04-16 03:17 -22.61572 -47.48151 26034 ft 411 kts 335°
2026-04-16 03:18 -22.58923 -47.49308 26037 ft 411 kts 335°
2026-04-16 03:18 -22.56270 -47.50466 26033 ft 411 kts 335°
2026-04-16 03:18 -22.53613 -47.51626 26032 ft 412 kts 335°
2026-04-16 03:18 -22.50954 -47.52786 26038 ft 412 kts 335°
2026-04-16 03:19 -22.48298 -47.53944 26033 ft 412 kts 335°
2026-04-16 03:19 -22.45635 -47.55111 26032 ft 412 kts 334°
2026-04-16 03:19 -22.43118 -47.56565 26025 ft 409 kts 323°
2026-04-16 03:19 -22.40906 -47.58467 26030 ft 405 kts 313°
2026-04-16 03:20 -22.38959 -47.60663 26038 ft 404 kts 311°
2026-04-16 03:20 -22.37021 -47.62874 26028 ft 405 kts 311°
2026-04-16 03:20 -22.35076 -47.65076 26030 ft 405 kts 311°
2026-04-16 03:20 -22.33125 -47.67272 26028 ft 405 kts 311°
2026-04-16 03:21 -22.31169 -47.69464 26028 ft 405 kts 311°
2026-04-16 03:21 -22.29209 -47.71653 26031 ft 405 kts 311°
2026-04-16 03:21 -22.27251 -47.73836 26024 ft 405 kts 311°
2026-04-16 03:21 -22.25292 -47.76019 26022 ft 405 kts 311°
2026-04-16 03:22 -22.23331 -47.78202 26031 ft 404 kts 311°
2026-04-16 03:22 -22.21373 -47.80381 26035 ft 405 kts 311°
2026-04-16 03:22 -22.19413 -47.82561 26031 ft 405 kts 311°
2026-04-16 03:22 -22.17454 -47.84740 26028 ft 405 kts 311°
2026-04-16 03:23 -22.15492 -47.86922 26030 ft 405 kts 311°
2026-04-16 03:23 -22.13559 -47.89069 26027 ft 405 kts 311°
2026-04-16 03:23 -22.11573 -47.91275 26026 ft 404 kts 311°
2026-04-16 03:23 -22.09613 -47.93452 26029 ft 404 kts 311°
2026-04-16 03:24 -22.07679 -47.95598 26016 ft 405 kts 311°
2026-04-16 03:24 -22.05718 -47.97773 26015 ft 405 kts 311°
2026-04-16 03:24 -22.03755 -47.99949 26020 ft 405 kts 311°
2026-04-16 03:24 -22.01794 -48.02124 26020 ft 405 kts 311°
2026-04-16 03:25 -21.99833 -48.04297 26022 ft 405 kts 311°
2026-04-16 03:25 -21.97871 -48.06470 26014 ft 405 kts 312°
2026-04-16 03:25 -21.95906 -48.08645 26012 ft 405 kts 312°
2026-04-16 03:25 -21.93943 -48.10818 26013 ft 405 kts 312°
2026-04-16 03:26 -21.91980 -48.12990 26010 ft 405 kts 312°
2026-04-16 03:26 -21.90018 -48.15160 26010 ft 404 kts 312°
2026-04-16 03:26 -21.88054 -48.17330 26009 ft 404 kts 312°
2026-04-16 03:26 -21.86091 -48.19498 26010 ft 404 kts 312°
2026-04-16 03:27 -21.84126 -48.21666 26007 ft 405 kts 312°
2026-04-16 03:27 -21.82160 -48.23833 26004 ft 404 kts 312°
2026-04-16 03:27 -21.80196 -48.25998 26002 ft 404 kts 312°
2026-04-16 03:27 -21.78233 -48.28162 26000 ft 404 kts 312°
2026-04-16 03:28 -21.76273 -48.30322 26003 ft 403 kts 312°
2026-04-16 03:28 -21.74315 -48.32478 25996 ft 403 kts 312°
2026-04-16 03:28 -21.72356 -48.34636 25937 ft 403 kts 312°
2026-04-16 03:28 -21.70391 -48.36799 25509 ft 404 kts 312°
2026-04-16 03:29 -21.68429 -48.38958 24973 ft 404 kts 312°
2026-04-16 03:29 -21.66465 -48.41118 24463 ft 403 kts 313°
2026-04-16 03:29 -21.64509 -48.43268 24014 ft 401 kts 313°
2026-04-16 03:29 -21.62564 -48.45406 23557 ft 399 kts 313°
2026-04-16 03:30 -21.60629 -48.47530 23045 ft 396 kts 313°
2026-04-16 03:30 -21.58709 -48.49639 22583 ft 393 kts 313°
2026-04-16 03:30 -21.56806 -48.51727 22123 ft 389 kts 313°
2026-04-16 03:30 -21.54918 -48.53798 21686 ft 386 kts 313°
2026-04-16 03:31 -21.53048 -48.55848 21252 ft 383 kts 313°
2026-04-16 03:31 -21.51191 -48.57885 20822 ft 380 kts 313°
2026-04-16 03:31 -21.49349 -48.59904 20397 ft 377 kts 313°
2026-04-16 03:31 -21.47517 -48.61911 19976 ft 375 kts 313°
2026-04-16 03:32 -21.45699 -48.63901 19557 ft 372 kts 313°
2026-04-16 03:32 -21.43890 -48.65882 19118 ft 371 kts 313°
2026-04-16 03:34 -21.31489 -48.79438 16114 ft 356 kts 314°
2026-04-16 03:34 -21.29762 -48.81324 15710 ft 354 kts 314°
2026-04-16 03:34 -21.28040 -48.83203 15307 ft 352 kts 314°
2026-04-16 03:34 -21.26328 -48.85071 14886 ft 351 kts 314°
2026-04-16 03:35 -21.24621 -48.86933 14496 ft 349 kts 314°
2026-04-16 03:35 -21.22915 -48.88792 14071 ft 349 kts 313°
2026-04-16 03:35 -21.21357 -48.90768 13645 ft 347 kts 302°
2026-04-16 03:35 -21.20273 -48.93058 13261 ft 343 kts 290°
2026-04-16 03:36 -21.19468 -48.95450 12869 ft 340 kts 288°
2026-04-16 03:36 -21.18694 -48.97831 12480 ft 338 kts 288°
2026-04-16 03:36 -21.17923 -49.00199 12096 ft 335 kts 288°
2026-04-16 03:36 -21.17154 -49.02552 11715 ft 333 kts 288°
2026-04-16 03:37 -21.16386 -49.04890 11335 ft 332 kts 288°
2026-04-16 03:37 -21.15616 -49.07222 10959 ft 332 kts 288°
2026-04-16 03:37 -21.14844 -49.09547 10644 ft 329 kts 289°
2026-04-16 03:37 -21.14088 -49.11820 10503 ft 319 kts 289°
2026-04-16 03:38 -21.13352 -49.14029 10345 ft 311 kts 289°
2026-04-16 03:38 -21.12636 -49.16178 10216 ft 302 kts 289°
2026-04-16 03:38 -21.11939 -49.18268 10088 ft 294 kts 289°
2026-04-16 03:38 -21.11259 -49.20303 9937 ft 287 kts 289°
2026-04-16 03:39 -21.10588 -49.22313 9628 ft 286 kts 289°
2026-04-16 03:39 -21.09921 -49.24312 9333 ft 284 kts 289°
2026-04-16 03:39 -21.09257 -49.26298 9073 ft 282 kts 289°
2026-04-16 03:39 -21.08598 -49.28270 8795 ft 281 kts 289°
2026-04-16 03:40 -21.07940 -49.30236 8513 ft 280 kts 289°
2026-04-16 03:40 -21.07285 -49.32193 8222 ft 278 kts 289°
2026-04-16 03:40 -21.06633 -49.34140 7951 ft 277 kts 290°
2026-04-16 03:40 -21.05991 -49.36056 7677 ft 277 kts 290°
2026-04-16 03:41 -21.05334 -49.38017 7390 ft 276 kts 290°
2026-04-16 03:41 -21.04696 -49.39921 7115 ft 275 kts 290°
2026-04-16 03:41 -21.04050 -49.41846 6836 ft 274 kts 290°
2026-04-16 03:41 -21.03408 -49.43763 6608 ft 272 kts 290°
2026-04-16 03:42 -21.02779 -49.45637 6484 ft 264 kts 290°
2026-04-16 03:42 -21.02164 -49.47466 6359 ft 257 kts 290°
2026-04-16 03:42 -21.01567 -49.49243 6236 ft 250 kts 290°
2026-04-16 03:42 -21.00982 -49.50971 6127 ft 243 kts 292°
2026-04-16 03:43 -21.00081 -49.52431 5946 ft 234 kts 326°
2026-04-16 03:43 -20.98633 -49.53031 5809 ft 219 kts 348°
2026-04-16 03:43 -20.97189 -49.53529 5545 ft 216 kts 340°
2026-04-16 03:43 -20.95793 -49.54088 5323 ft 213 kts 343°
2026-04-16 03:44 -20.94391 -49.54590 5120 ft 213 kts 344°
2026-04-16 03:44 -20.92946 -49.54862 4834 ft 211 kts 11°
2026-04-16 03:44 -20.91732 -49.54127 4636 ft 201 kts 53°
2026-04-16 03:44 -20.90901 -49.52937 4441 ft 200 kts 53°
2026-04-16 03:45 -20.90036 -49.51797 4220 ft 194 kts 53°
2026-04-16 03:45 -20.89212 -49.50707 3975 ft 184 kts 54°
2026-04-16 03:45 -20.88428 -49.49664 3729 ft 176 kts 54°
2026-04-16 03:45 -20.87673 -49.48659 3513 ft 172 kts 54°
2026-04-16 03:46 -20.86936 -49.47676 3322 ft 166 kts 54°
2026-04-16 03:46 -20.86234 -49.46741 3122 ft 156 kts 55°
2026-04-16 03:46 -20.85573 -49.45859 2897 ft 150 kts 55°
2026-04-16 03:46 -20.85143 -49.45286 2763 ft 149 kts 55°
2026-04-16 03:47 -20.84496 -49.44420 2603 ft 147 kts 55°
2026-04-16 03:47 -20.83854 -49.43562 2371 ft 148 kts 54°
2026-04-16 03:47 -20.83217 -49.42705 2147 ft 148 kts 53°
2026-04-16 03:47 -20.82568 -49.41844 1928 ft 149 kts 53°
2026-04-16 03:48 -20.81928 -49.40987 1772 ft 141 kts 52°
2026-04-16 03:48 -20.81473 -49.40379 1764 ft 52 kts 51°
2026-04-16 03:48 -20.81310 -49.40160 1763 ft 28 kts 52°
2026-04-16 03:48 -20.81225 -49.40089 1765 ft 10 kts 347°
2026-04-16 03:49 -20.81203 -49.40151 1767 ft 10 kts 249°
2026-04-16 03:49 -20.81241 -49.40212 1764 ft 10 kts 231°
2026-04-16 03:49 -20.81276 -49.40258 1767 ft 8 kts 231°
2026-04-16 03:49 -20.81310 -49.40302 1764 ft 7 kts 231°
2026-04-16 03:50 -20.81314 -49.40343 1764 ft 6 kts 311°
2026-04-16 03:50 -20.81285 -49.40369 1764 ft 5 kts 321°
2026-04-16 03:50 -20.81265 -49.40386 1767 ft 0 kts 322°
2026-04-16 03:50 -20.81262 -49.40389 1764 ft 2 kts 321°
2026-04-16 03:51 -20.81256 -49.40394 1764 ft 0 kts 321°